DW7346 Weather Reports


time (UTC)temp
C
wind
direction
speed
KPH
gust
KPH
rain 1hr
cm
rain 24hr
cm
rain mn
cm
humidity
%
barometer
mb
20260506111508 12 18 3.2 16.1 0.00 0.00 0.00 81 1009.7
20260506110006 12 1 3.2 14.5 0.00 0.00 0.00 80 1009.6
20260506104616 13 6 8.0 17.7 0.00 0.00 0.00 79 1009.3
20260506104501 13 49 8.0 17.7 0.00 0.00 0.00 80 1009.3
20260506103058 13 351 4.8 12.9 0.00 0.00 0.00 80 1009.2
20260506101602 13 11 3.2 14.5 0.00 0.00 0.00 80 1008.9
20260506100051 13 9 1.6 9.7 0.00 0.00 0.00 80 1008.7
20260506094556 13 360 3.2 12.9 0.00 0.00 0.00 79 1008.4
20260506093053 13 3 0.0 9.7 0.00 0.00 0.00 80 1008.3
20260506091545 13 360 3.2 11.3 0.00 0.00 0.00 81 1008.2
20260506090044 13 1 3.2 11.3 0.00 0.00 0.00 80 1008.0
20260506084544 13 12 4.8 14.5 0.00 0.00 0.00 80 1007.9
20260506083041 13 359 4.8 14.5 0.00 0.00 0.00 80 1007.8
20260506081538 14 1 3.2 11.3 0.00 0.00 0.00 81 1007.8
20260506073035 14 22 1.6 6.4 0.00 0.00 0.00 81 1007.2
20260506071530 15 8 4.8 16.1 0.00 0.00 0.00 81 1007.3
20260506061523 15 353 4.8 17.7 0.00 0.00 0.00 82 1007.4
20260506044512 16 11 3.2 14.5 0.00 0.00 0.00 81 1007.2
20260506043010 16 359 1.6 9.7 0.00 0.00 0.00 81 1007.3
20260506041517 17 337 1.6 12.9 0.00 0.00 0.00 81 1007.1
20260506040004 17 7 1.6 11.3 0.00 0.00 0.00 81 1007.0
20260506034501 17 8 1.6 14.5 0.00 0.00 0.00 81 1006.4
20260506033112 18 343 8.0 16.1 0.00 0.00 0.00 80 1006.3
20260506031558 18 349 3.2 9.7 0.00 0.00 0.00 80 1006.1
20260506030051 19 360 6.4 14.5 0.00 0.00 0.00 79 1005.9
20260506024548 20 338 1.6 11.3 0.00 0.00 0.00 79 1005.7
20260506023045 20 355 3.2 12.9 0.00 0.00 0.00 79 1005.3
20260506021541 20 360 1.6 6.4 0.00 0.00 0.00 78 1004.6
20260506020039 20 359 1.6 6.4 0.00 0.00 0.00 77 1004.6
20260506014545 20 345 0.0 4.8 0.00 0.00 0.00 75 1003.9
20260506013037 21 352 1.6 8.0 0.00 0.00 0.00 75 1004.0
20260506011539 21 39 3.2 12.9 0.00 0.00 0.00 75 1004.0
20260506010030 22 360 3.2 11.3 0.00 0.00 0.00 73 1003.4
20260506004537 22 302 1.6 12.9 0.00 0.00 0.00 72 1003.3
20260506003027 22 18 1.6 11.3 0.00 0.00 0.00 72 1002.9
20260506001526 23 342 3.2 8.0 0.00 0.00 0.00 70 1002.3
20260506000034 24 314 3.2 12.9 0.00 0.00 0.00 69 1002.6
20260505234524 25 328 3.2 12.9 0.00 0.00 0.00 68 1002.3
20260505233023 26 307 3.2 16.1 0.00 0.00 0.00 67 1002.0
20260505231523 27 355 1.6 14.5 0.00 0.00 0.00 67 1001.8
20260505230022 27 356 3.2 9.7 0.00 0.00 0.00 65 1001.8
20260505224533 28 111 1.6 9.7 0.00 0.00 0.00 61 1001.3
20260505223028 29 323 0.0 9.7 0.00 0.00 0.00 60 1001.3
20260505221521 30 215 3.2 9.7 0.00 0.00 0.00 55 1001.0
20260505220033 30 331 1.6 8.0 0.00 0.00 0.00 55 1000.8
20260505214532 31 1 3.2 11.3 0.00 0.00 0.00 53 1001.0
20260505213023 32 244 6.4 12.9 0.00 0.00 0.00 54 1000.8
20260505211515 32 261 6.4 14.5 0.00 0.00 0.00 56 1000.9
20260505210011 31 264 4.8 14.5 0.00 0.00 0.00 57 1001.1
20260505204516 31 245 4.8 16.1 0.00 0.00 0.00 59 1001.2
20260505203009 31 269 6.4 12.9 0.00 0.00 0.00 60 1001.4
20260505201505 31 329 4.8 20.9 0.00 0.00 0.00 61 1001.6
20260505194600 30 267 8.0 16.1 0.00 0.00 0.00 67 1001.7
20260505193056 30 252 8.0 16.1 0.00 0.00 0.00 68 1002.0
20260505191558 29 221 8.0 20.9 0.00 0.00 0.00 68 1001.8
20260505190107 28 216 9.7 19.3 0.00 0.00 0.00 69 1001.8
20260505184600 28 220 6.4 16.1 0.00 0.00 0.00 74 1001.8
20260505183051 27 193 8.0 20.9 0.00 0.00 0.00 72 1002.1
20260505181546 27 239 11.3 22.5 0.00 0.00 0.00 72 1001.9
20260505180049 27 240 8.0 17.7 0.00 0.00 0.00 74 1002.1
20260505174543 27 20 8.0 17.7 0.00 0.00 0.00 73 1002.0
20260505173042 27 174 9.7 22.5 0.00 0.00 0.00 73 1002.0
20260505171541 26 186 9.7 22.5 0.00 0.00 0.00 75 1002.0
20260505170034 26 198 9.7 24.1 0.00 0.00 0.00 76 1002.2
20260505164536 26 170 6.4 19.3 0.00 0.00 0.00 77 1002.1
20260505163031 26 252 6.4 19.3 0.00 0.00 0.00 78 1002.0
20260505161526 25 203 6.4 22.5 0.00 0.00 0.00 80 1001.9
20260505153027 24 213 8.0 19.3 0.00 0.00 0.00 81 1002.0
20260505151518 24 162 8.0 22.5 0.00 0.00 0.00 82 1001.8
20260505124508 21 199 8.0 19.3 0.00 0.00 0.00 89 1001.3
20260505123006 21 231 6.4 20.9 0.00 0.00 0.00 89 1001.2
20260505121507 21 175 6.4 20.9 0.00 0.00 0.00 89 1000.9
20260505120004 21 192 6.4 17.7 0.00 0.00 0.00 89 1000.9
20260505114504 21 237 6.4 17.7 0.00 0.00 0.00 89 1000.9
20260505113006 21 164 8.0 22.5 0.00 0.00 0.00 89 1000.7